Auburn, CA

10:36 AM PST on November 18, 2019 (GMT -0800)
Auburn Municipal

Weather History for KAUN - September, 2019

Change the Weather History Date:

Saturday, September 14, 2019

  Actual Average Record
Temperature  
Mean Temperature 81 °F -  
Max Temperature 93 °F 86 °F 105 °F (1971)
Min Temperature 69 °F 56 °F 46 °F (1952)
Cooling Degree Days 16    
Growing Degree Days 31 (Base 50)    
Moisture  
Dew Point 40 °F    
Average Humidity 24    
Maximum Humidity 35    
Minimum Humidity 13    
Precipitation  
Precipitation 0.00 in - - ()
Sea Level Pressure  
Sea Level Pressure 29.96 in    
Wind  
Wind Speed 5 mph ()    
Max Wind Speed 10 mph    
Max Gust Speed 12 mph    
Visibility 10.0 miles    
Events      
Averages and records for this station are not official NWS values.
T = Trace of Precipitation, MM = Missing Value Source: Averaged Metar Reports

Daily Weather History Graph

Daily Weather History Graph

Search for Another Location

Airport or City:

Astronomy

Sep. 14, 2019 Rise Set
Actual Time 6:44 AM PDT 7:14 PM PDT
Civil Twilight 6:17 AM PDT 7:41 PM PDT
Nautical Twilight 5:46 AM PDT 8:12 PM PDT
Astronomical Twilight 5:14 AM PDT 8:44 PM PDT
Moon 7:57 PM PDT (9/14) 7:03 AM PDT (9/14)
Length of Visible Light 13h 23m
Length of Day
12h 29m
Full, 100% of the Moon is Illuminated
Sep 14
Full
Sep 21
Last Quarter
Sep 28
New
Oct 5
First Quarter
Oct 13
Full

Hourly Weather History & Observations

Time (PDT) Temp. Dew Point Humidity Pressure Visibility Wind Dir Wind Speed Gust Speed Precip Events Conditions
12:15 AM 75.2 °F 41.0 °F 29% 30.00 in 10.0 mi ESE 3.5 mph - N/A   Clear
12:35 AM 73.4 °F 41.0 °F 31% 30.00 in 10.0 mi East 8.1 mph - N/A   Clear
12:55 AM 73.4 °F 39.2 °F 29% 29.99 in 10.0 mi East 9.2 mph - N/A   Clear
1:15 AM 71.6 °F 39.2 °F 31% 30.00 in 10.0 mi Calm Calm - N/A   Clear
1:35 AM 71.6 °F 39.2 °F 31% 30.00 in 10.0 mi East 8.1 mph - N/A   Clear
1:55 AM 71.6 °F 39.2 °F 31% 29.99 in 10.0 mi East 9.2 mph - N/A   Clear
2:15 AM 71.6 °F 39.2 °F 31% 29.99 in 10.0 mi East 9.2 mph - N/A   Clear
2:35 AM 73.4 °F 39.2 °F 29% 29.98 in 10.0 mi East 10.4 mph - N/A   Clear
2:55 AM 71.6 °F 39.2 °F 31% 29.98 in 10.0 mi East 9.2 mph - N/A   Clear
3:15 AM 71.6 °F 39.2 °F 31% 29.98 in 10.0 mi East 9.2 mph - N/A   Clear
3:35 AM 71.6 °F 39.2 °F 31% 29.98 in 10.0 mi East 10.4 mph - N/A   Clear
3:55 AM 71.6 °F 39.2 °F 31% 29.98 in 10.0 mi East 9.2 mph - N/A   Clear
4:15 AM 71.6 °F 39.2 °F 31% 29.98 in 10.0 mi East 10.4 mph - N/A   Clear
4:35 AM 71.6 °F 37.4 °F 29% 29.98 in 10.0 mi East 9.2 mph - N/A   Clear
4:55 AM 71.6 °F 37.4 °F 29% 29.98 in 10.0 mi East 9.2 mph - N/A   Clear
5:35 AM 71.6 °F 37.4 °F 29% 29.98 in 10.0 mi East 9.2 mph - N/A   Clear
5:55 AM 71.6 °F 37.4 °F 29% 29.98 in 10.0 mi East 8.1 mph - N/A   Clear
6:15 AM 69.8 °F 37.4 °F 31% 29.99 in 10.0 mi East 9.2 mph - N/A   Clear
6:35 AM 69.8 °F 37.4 °F 31% 29.99 in 10.0 mi East 8.1 mph - N/A   Clear
6:55 AM 71.6 °F 35.6 °F 27% 29.99 in 10.0 mi East 9.2 mph - N/A   Clear
7:15 AM 71.6 °F 35.6 °F 27% 30.00 in 10.0 mi East 9.2 mph - N/A   Clear
7:35 AM 73.4 °F 37.4 °F 27% 30.00 in 10.0 mi East 8.1 mph - N/A   Clear
7:55 AM 73.4 °F 37.4 °F 27% 30.00 in 10.0 mi East 6.9 mph - N/A   Clear
8:15 AM 75.2 °F 37.4 °F 25% 30.00 in 10.0 mi East 6.9 mph - N/A   Clear
8:35 AM 77.0 °F 39.2 °F 26% 30.01 in 10.0 mi East 8.1 mph - N/A   Clear
8:55 AM 78.8 °F 39.2 °F 24% 30.01 in 10.0 mi East 9.2 mph - N/A   Clear
9:15 AM 80.6 °F 39.2 °F 23% 30.01 in 10.0 mi ESE 8.1 mph - N/A   Clear
9:35 AM 82.4 °F 39.2 °F 21% 30.01 in 10.0 mi East 6.9 mph - N/A   Clear
9:55 AM 84.2 °F 39.2 °F 20% 30.01 in 10.0 mi East 5.8 mph - N/A   Clear
10:15 AM 86.0 °F 39.2 °F 19% 30.02 in 10.0 mi Calm Calm - N/A   Clear
10:35 AM 86.0 °F 39.2 °F 19% 30.02 in 10.0 mi Variable 3.5 mph - N/A   Clear
10:55 AM 86.0 °F 39.2 °F 19% 30.02 in 10.0 mi Calm Calm - N/A   Clear
11:15 AM 87.8 °F 39.2 °F 18% 30.01 in 10.0 mi Calm Calm - N/A   Clear
11:35 AM 87.8 °F 39.2 °F 18% 30.01 in 10.0 mi Variable 4.6 mph - N/A   Clear
11:55 AM 89.6 °F 37.4 °F 16% 30.01 in 10.0 mi Calm Calm - N/A   Clear
12:15 PM 89.6 °F 39.2 °F 17% 30.01 in 10.0 mi Variable 4.6 mph - N/A   Clear
12:35 PM 91.4 °F 41.0 °F 17% 30.00 in 10.0 mi Variable 4.6 mph 11.5 mph N/A   Clear
12:55 PM 91.4 °F 39.2 °F 16% 29.99 in 10.0 mi SSE 6.9 mph - N/A   Clear
1:15 PM 91.4 °F 41.0 °F 17% 29.99 in 10.0 mi SSW 8.1 mph - N/A   Clear
1:35 PM 91.4 °F 41.0 °F 17% 29.98 in 10.0 mi WSW 6.9 mph - N/A   Clear
1:55 PM 91.4 °F 42.8 °F 18% 29.97 in 10.0 mi West 5.8 mph - N/A   Clear
2:15 PM 93.2 °F 42.8 °F 17% 29.97 in 10.0 mi West 6.9 mph - N/A   Clear
2:35 PM 91.4 °F 42.8 °F 18% 29.96 in 10.0 mi Calm Calm - N/A   Clear
2:55 PM 93.2 °F 42.8 °F 17% 29.95 in 10.0 mi Variable 5.8 mph - N/A   Clear
3:15 PM 91.4 °F 41.0 °F 17% 29.95 in 10.0 mi Calm Calm - N/A   Clear
3:35 PM 91.4 °F 39.2 °F 16% 29.94 in 10.0 mi Calm Calm - N/A   Clear
3:55 PM 91.4 °F 39.2 °F 16% 29.94 in 10.0 mi Variable 5.8 mph - N/A   Clear
4:15 PM 93.2 °F 37.4 °F 14% 29.93 in 10.0 mi West 6.9 mph - N/A   Clear
4:35 PM 93.2 °F 35.6 °F 13% 29.93 in 10.0 mi Calm Calm - N/A   Clear
4:55 PM 91.4 °F 35.6 °F 14% 29.93 in 10.0 mi Calm Calm - N/A   Clear
5:15 PM 91.4 °F 37.4 °F 15% 29.92 in 10.0 mi Calm Calm - N/A   Clear
5:35 PM 91.4 °F 37.4 °F 15% 29.92 in 10.0 mi Calm Calm - N/A   Clear
5:55 PM 89.6 °F 39.2 °F 17% 29.91 in 10.0 mi Calm Calm - N/A   Clear
6:15 PM 89.6 °F 39.2 °F 17% 29.91 in 10.0 mi Calm Calm - N/A   Clear
6:35 PM 87.8 °F 41.0 °F 19% 29.91 in 10.0 mi Calm Calm - N/A   Clear
6:55 PM 86.0 °F 41.0 °F 20% 29.91 in 10.0 mi Calm Calm - N/A   Clear
7:15 PM 82.4 °F 41.0 °F 23% 29.91 in 10.0 mi Calm Calm - N/A   Clear
7:35 PM 75.2 °F 41.0 °F 29% 29.90 in 10.0 mi Calm Calm - N/A   Clear
7:55 PM 71.6 °F 41.0 °F 33% 29.90 in 10.0 mi Calm Calm - N/A   Clear
8:15 PM 69.8 °F 41.0 °F 35% 29.91 in 10.0 mi Calm Calm - N/A   Clear
8:35 PM 75.2 °F 42.8 °F 31% 29.91 in 10.0 mi Calm Calm - N/A   Clear
8:55 PM 73.4 °F 42.8 °F 33% 29.91 in 10.0 mi Calm Calm - N/A   Clear
9:15 PM 73.4 °F 42.8 °F 33% 29.91 in 10.0 mi Calm Calm - N/A   Clear
9:35 PM 73.4 °F 42.8 °F 33% 29.91 in 10.0 mi Calm Calm - N/A   Clear
9:55 PM 75.2 °F 41.0 °F 29% 29.92 in 10.0 mi ESE 5.8 mph - N/A   Clear
10:15 PM 75.2 °F 41.0 °F 29% 29.92 in 10.0 mi Calm Calm - N/A   Clear
10:35 PM 73.4 °F 41.0 °F 31% 29.91 in 10.0 mi East 5.8 mph - N/A   Clear
11:15 PM 73.4 °F 41.0 °F 31% 29.91 in 10.0 mi East 6.9 mph - N/A   Clear
11:35 PM 71.6 °F 41.0 °F 33% 29.91 in 10.0 mi East 5.8 mph - N/A   Clear
11:55 PM 71.6 °F 41.0 °F 33% 29.91 in 10.0 mi ESE 5.8 mph - N/A   Clear